Time,TemperatureF,DewpointF,PressureIn,WindDirection,WindDirectionDegrees,WindSpeedMPH,WindSpeedGustMPH,Humidity,HourlyPrecipIn,Conditions,Clouds,dailyrainin,SoftwareType,DateUTC
2013-02-20 00:00:00,38.4,29.1,29.74,West,270,6.9,6.9,69,0.00,,OVC,0.14,VWS V14.00,2013-02-20 05:00:00,
2013-02-20 00:05:00,38.4,28.8,29.74,NNW,338,2.4,2.4,68,0.00,,OVC,0.00,VWS V14.00,2013-02-20 05:05:00,
2013-02-20 00:10:00,38.1,28.5,29.74,WSW,248,2.9,2.9,68,0.00,,OVC,0.00,VWS V14.00,2013-02-20 05:10:00,
2013-02-20 00:15:00,37.9,28.3,29.74,WNW,292,0.0,0.0,68,0.00,,OVC,0.00,VWS V14.00,2013-02-20 05:15:00,
2013-02-20 00:20:00,37.7,28.1,29.75,West,270,0.4,0.4,68,0.00,,OVC,0.00,VWS V14.00,2013-02-20 05:20:00,
2013-02-20 00:25:00,37.5,27.9,29.75,NW,315,4.2,4.2,68,0.00,,OVC,0.00,VWS V14.00,2013-02-20 05:25:00,
2013-02-20 00:30:00,37.2,27.6,29.75,WSW,248,0.6,0.6,68,0.00,,OVC,0.00,VWS V14.00,2013-02-20 05:30:00,
2013-02-20 00:35:00,37.2,27.6,29.75,WNW,292,0.0,0.0,68,0.00,,OVC,0.00,VWS V14.00,2013-02-20 05:35:00,
2013-02-20 00:40:00,36.8,27.2,29.75,West,270,2.4,2.4,68,0.00,,OVC,0.00,VWS V14.00,2013-02-20 05:40:00,
2013-02-20 00:45:00,36.6,27.0,29.75,West,270,0.0,0.0,68,0.00,,OVC,0.00,VWS V14.00,2013-02-20 05:45:00,
2013-02-20 00:50:00,36.3,27.1,29.75,WNW,292,4.4,4.4,69,0.00,,OVC,0.00,VWS V14.00,2013-02-20 05:50:00,
2013-02-20 00:55:00,36.3,27.1,29.76,NW,315,0.0,0.0,69,0.00,,OVC,0.00,VWS V14.00,2013-02-20 05:55:00,
2013-02-20 01:00:00,35.9,26.7,29.76,NW,315,7.1,7.1,69,0.00,,OVC,0.00,VWS V14.00,2013-02-20 06:00:00,
2013-02-20 01:05:00,35.7,26.5,29.75,WSW,248,2.4,2.4,69,0.00,,OVC,0.00,VWS V14.00,2013-02-20 06:05:00,
2013-02-20 01:10:00,35.9,26.7,29.76,WNW,292,2.4,2.4,69,0.00,,OVC,0.00,VWS V14.00,2013-02-20 06:10:00,
2013-02-20 01:15:00,35.9,26.7,29.75,West,270,0.0,0.0,69,0.00,,OVC,0.00,VWS V14.00,2013-02-20 06:15:00,
2013-02-20 01:20:00,35.7,26.2,29.75,NW,315,0.8,0.8,68,0.00,,OVC,0.00,VWS V14.00,2013-02-20 06:20:00,
2013-02-20 01:25:00,35.7,26.2,29.76,NW,315,0.0,0.0,68,0.00,,OVC,0.00,VWS V14.00,2013-02-20 06:25:00,
2013-02-20 01:30:00,35.7,25.8,29.76,NW,315,3.8,3.8,67,0.00,,OVC,0.00,VWS V14.00,2013-02-20 06:30:00,
2013-02-20 01:35:00,35.7,25.5,29.76,NNW,338,10.0,10.0,66,0.00,,OVC,0.00,VWS V14.00,2013-02-20 06:35:00,
2013-02-20 01:40:00,35.7,25.5,29.76,West,270,0.8,0.8,66,0.00,,OVC,0.00,VWS V14.00,2013-02-20 06:40:00,
2013-02-20 01:45:00,35.6,25.0,29.76,WNW,292,0.0,0.0,65,0.00,,OVC,0.00,VWS V14.00,2013-02-20 06:45:00,
2013-02-20 01:50:00,35.4,24.8,29.76,West,270,1.1,1.1,65,0.00,,OVC,0.00,VWS V14.00,2013-02-20 06:50:00,
2013-02-20 01:55:00,35.4,24.5,29.76,NNW,338,3.8,3.8,64,0.00,,OVC,0.00,VWS V14.00,2013-02-20 06:55:00,
2013-02-20 02:00:00,35.4,24.5,29.76,NW,315,11.6,11.6,64,0.00,,OVC,0.00,VWS V14.00,2013-02-20 07:00:00,
2013-02-20 02:05:00,35.4,24.5,29.77,NNW,338,12.3,12.3,64,0.00,,OVC,0.00,VWS V14.00,2013-02-20 07:05:00,
2013-02-20 02:10:00,35.2,24.3,29.77,NNW,338,0.0,0.0,64,0.00,,OVC,0.00,VWS V14.00,2013-02-20 07:10:00,
2013-02-20 02:15:00,35.2,23.9,29.77,WNW,292,3.8,3.8,63,0.00,,OVC,0.00,VWS V14.00,2013-02-20 07:15:00,
2013-02-20 02:20:00,35.2,24.3,29.78,SW,225,0.0,0.0,64,0.00,,OVC,0.00,VWS V14.00,2013-02-20 07:20:00,
2013-02-20 02:25:00,35.2,23.5,29.77,WNW,292,7.3,7.3,62,0.00,,OVC,0.00,VWS V14.00,2013-02-20 07:25:00,
2013-02-20 02:30:00,34.8,22.7,29.77,NW,315,6.2,6.2,61,0.00,,OVC,0.00,VWS V14.00,2013-02-20 07:30:00,
2013-02-20 02:35:00,34.8,22.7,29.77,West,270,3.8,3.8,61,0.00,,OVC,0.00,VWS V14.00,2013-02-20 07:35:00,
2013-02-20 02:40:00,34.5,22.1,29.78,WSW,248,0.6,0.6,60,0.00,,OVC,0.00,VWS V14.00,2013-02-20 07:40:00,
2013-02-20 02:45:00,34.3,21.9,29.78,WNW,292,2.6,2.6,60,0.00,,OVC,0.00,VWS V14.00,2013-02-20 07:45:00,
2013-02-20 02:50:00,34.3,21.1,29.78,NW,315,3.8,3.8,58,0.00,,OVC,0.00,VWS V14.00,2013-02-20 07:50:00,
2013-02-20 02:55:00,34.3,21.5,29.78,WSW,248,20.3,20.3,59,0.00,,OVC,0.00,VWS V14.00,2013-02-20 07:55:00,
2013-02-20 03:00:00,34.3,20.7,29.78,West,270,0.8,0.8,57,0.00,,OVC,0.00,VWS V14.00,2013-02-20 08:00:00,
2013-02-20 03:05:00,34.3,20.2,29.78,NNE,22,0.8,0.8,56,0.00,,OVC,0.00,VWS V14.00,2013-02-20 08:05:00,
2013-02-20 03:10:00,33.9,20.3,29.78,WNW,292,0.8,0.8,57,0.00,,OVC,0.00,VWS V14.00,2013-02-20 08:10:00,
2013-02-20 03:15:00,33.9,20.3,29.78,NW,315,3.3,3.3,57,0.00,,OVC,0.00,VWS V14.00,2013-02-20 08:15:00,
2013-02-20 03:20:00,33.9,19.9,29.78,WNW,292,3.3,3.3,56,0.00,,OVC,0.00,VWS V14.00,2013-02-20 08:20:00,
2013-02-20 03:25:00,33.8,19.4,29.78,WNW,292,13.1,13.1,55,0.00,,OVC,0.00,VWS V14.00,2013-02-20 08:25:00,
2013-02-20 03:30:00,33.6,20.0,29.78,North,0,0.0,0.0,57,0.00,,OVC,0.00,VWS V14.00,2013-02-20 08:30:00,
2013-02-20 03:35:00,33.4,19.8,29.78,South,180,0.0,0.0,57,0.00,,OVC,0.00,VWS V14.00,2013-02-20 08:35:00,
2013-02-20 03:40:00,33.0,19.4,29.79,NW,315,3.5,3.5,57,0.00,,OVC,0.00,VWS V14.00,2013-02-20 08:40:00,
2013-02-20 03:45:00,32.9,19.8,29.79,WSW,248,0.0,0.0,58,0.00,,OVC,0.00,VWS V14.00,2013-02-20 08:45:00,
2013-02-20 03:50:00,32.7,19.6,29.79,WSW,248,0.0,0.0,58,0.00,,OVC,0.00,VWS V14.00,2013-02-20 08:50:00,
2013-02-20 03:55:00,32.5,19.4,29.79,WNW,292,2.2,2.2,58,0.00,,OVC,0.00,VWS V14.00,2013-02-20 08:55:00,
2013-02-20 04:00:00,32.5,19.4,29.79,ENE,68,0.4,0.4,58,0.00,,OVC,0.00,VWS V14.00,2013-02-20 09:00:00,
2013-02-20 04:05:00,32.5,19.4,29.79,NW,315,0.0,0.0,58,0.00,,OVC,0.00,VWS V14.00,2013-02-20 09:05:00,
2013-02-20 04:10:00,32.1,19.0,29.79,NW,315,0.0,0.0,58,0.00,,OVC,0.00,VWS V14.00,2013-02-20 09:10:00,
2013-02-20 04:15:00,32.1,19.4,29.80,WSW,248,0.0,0.0,59,0.00,,OVC,0.00,VWS V14.00,2013-02-20 09:15:00,
2013-02-20 04:20:00,32.1,19.4,29.80,WNW,292,1.1,1.1,59,0.00,,OVC,0.00,VWS V14.00,2013-02-20 09:20:00,
2013-02-20 04:25:00,31.8,19.1,29.80,WNW,292,5.5,5.5,59,0.00,,OVC,0.00,VWS V14.00,2013-02-20 09:25:00,
2013-02-20 04:30:00,31.8,19.1,29.80,SSW,202,0.8,0.8,59,0.00,,OVC,0.00,VWS V14.00,2013-02-20 09:30:00,
2013-02-20 04:35:00,31.8,19.5,29.80,West,270,0.0,0.0,60,0.00,,OVC,0.00,VWS V14.00,2013-02-20 09:35:00,
2013-02-20 04:40:00,31.6,19.3,29.81,West,270,0.0,0.0,60,0.00,,OVC,0.00,VWS V14.00,2013-02-20 09:40:00,
2013-02-20 04:45:00,31.6,19.3,29.80,WSW,248,3.8,3.8,60,0.00,,OVC,0.00,VWS V14.00,2013-02-20 09:45:00,
2013-02-20 04:50:00,31.4,19.5,29.81,West,270,2.4,2.4,61,0.00,,OVC,0.00,VWS V14.00,2013-02-20 09:50:00,
2013-02-20 04:55:00,31.2,19.3,29.81,West,270,0.0,0.0,61,0.00,,OVC,0.00,VWS V14.00,2013-02-20 09:55:00,
2013-02-20 05:00:00,31.2,19.3,29.81,WNW,292,0.0,0.0,61,0.00,,OVC,0.00,VWS V14.00,2013-02-20 10:00:00,
2013-02-20 05:05:00,31.1,19.2,29.81,WNW,292,0.0,0.0,61,0.00,,OVC,0.00,VWS V14.00,2013-02-20 10:05:00,
2013-02-20 05:10:00,30.9,19.0,29.81,WNW,292,0.0,0.0,61,0.00,,OVC,0.00,VWS V14.00,2013-02-20 10:10:00,
2013-02-20 05:15:00,30.7,19.2,29.81,NW,315,0.0,0.0,62,0.00,,OVC,0.00,VWS V14.00,2013-02-20 10:15:00,
2013-02-20 05:20:00,30.7,19.2,29.81,WNW,292,0.8,0.8,62,0.00,,OVC,0.00,VWS V14.00,2013-02-20 10:20:00,
2013-02-20 05:25:00,30.7,19.2,29.81,West,270,0.0,0.0,62,0.00,,OVC,0.00,VWS V14.00,2013-02-20 10:25:00,
2013-02-20 05:30:00,30.7,19.2,29.81,WNW,292,0.0,0.0,62,0.00,,OVC,0.00,VWS V14.00,2013-02-20 10:30:00,
2013-02-20 05:35:00,30.9,19.4,29.81,West,270,0.0,0.0,62,0.00,,OVC,0.00,VWS V14.00,2013-02-20 10:35:00,
2013-02-20 05:40:00,30.9,19.8,29.82,WNW,292,0.0,0.0,63,0.00,,OVC,0.00,VWS V14.00,2013-02-20 10:40:00,
2013-02-20 05:45:00,30.9,19.8,29.82,WNW,292,0.0,0.0,63,0.00,,OVC,0.00,VWS V14.00,2013-02-20 10:45:00,
2013-02-20 05:50:00,30.9,19.8,29.82,NW,315,0.0,0.0,63,0.00,,OVC,0.00,VWS V14.00,2013-02-20 10:50:00,
2013-02-20 05:55:00,31.2,20.1,29.82,NW,315,2.4,2.4,63,0.00,,OVC,0.00,VWS V14.00,2013-02-20 10:55:00,
2013-02-20 06:00:00,31.6,20.5,29.82,WNW,292,0.0,0.0,63,0.00,,OVC,0.00,VWS V14.00,2013-02-20 11:00:00,
2013-02-20 06:05:00,31.6,20.5,29.82,WNW,292,4.4,4.4,63,0.00,,OVC,0.00,VWS V14.00,2013-02-20 11:05:00,
2013-02-20 06:10:00,31.6,20.5,29.83,WNW,292,6.7,6.7,63,0.00,,OVC,0.00,VWS V14.00,2013-02-20 11:10:00,
2013-02-20 06:15:00,31.6,20.1,29.83,NNW,338,0.0,0.0,62,0.00,,OVC,0.00,VWS V14.00,2013-02-20 11:15:00,
2013-02-20 06:20:00,31.6,19.7,29.83,NW,315,2.6,2.6,61,0.00,,OVC,0.00,VWS V14.00,2013-02-20 11:20:00,
2013-02-20 06:25:00,31.4,19.1,29.83,WSW,248,0.0,0.0,60,0.00,,OVC,0.00,VWS V14.00,2013-02-20 11:25:00,
2013-02-20 06:30:00,31.2,19.0,29.83,WNW,292,6.0,6.0,60,0.00,,OVC,0.00,VWS V14.00,2013-02-20 11:30:00,
2013-02-20 06:35:00,31.2,19.0,29.84,WNW,292,0.0,0.0,60,0.00,,OVC,0.00,VWS V14.00,2013-02-20 11:35:00,
2013-02-20 06:40:00,31.1,18.5,29.84,WNW,292,0.0,0.0,59,0.00,,OVC,0.00,VWS V14.00,2013-02-20 11:40:00,
2013-02-20 06:44:00,30.9,18.3,29.84,West,270,1.3,1.3,59,0.00,,OVC,0.00,VWS V14.00,2013-02-20 11:44:00,
2013-02-20 06:49:00,30.7,18.1,29.84,NW,315,1.7,1.7,59,0.00,,OVC,0.00,VWS V14.00,2013-02-20 11:49:00,
2013-02-20 06:54:00,30.7,17.3,29.84,NW,315,0.0,0.0,57,0.00,,OVC,0.00,VWS V14.00,2013-02-20 11:54:00,
2013-02-20 06:59:00,30.7,17.3,29.85,West,270,2.4,2.4,57,0.00,,OVC,0.00,VWS V14.00,2013-02-20 11:59:00,
2013-02-20 07:04:00,30.7,17.3,29.85,NW,315,0.0,0.0,57,0.00,,OVC,0.00,VWS V14.00,2013-02-20 12:04:00,
2013-02-20 07:09:00,30.7,17.3,29.85,NW,315,3.3,3.3,57,0.00,,OVC,0.00,VWS V14.00,2013-02-20 12:09:00,
2013-02-20 07:14:00,30.9,16.6,29.86,West,270,5.3,5.3,55,0.00,,OVC,0.00,VWS V14.00,2013-02-20 12:14:00,
2013-02-20 07:19:00,31.2,16.1,29.86,North,0,2.6,2.6,53,0.00,,OVC,0.00,VWS V14.00,2013-02-20 12:19:00,
2013-02-20 07:24:00,31.8,16.2,29.86,West,270,7.3,7.3,52,0.00,,OVC,0.00,VWS V14.00,2013-02-20 12:24:00,
2013-02-20 07:29:00,32.5,16.9,29.86,WNW,292,5.5,5.5,52,0.00,,OVC,0.00,VWS V14.00,2013-02-20 12:29:00,
2013-02-20 07:34:00,33.4,17.7,29.86,West,270,8.7,8.7,52,0.00,,OVC,0.00,VWS V14.00,2013-02-20 12:34:00,
2013-02-20 07:39:00,34.1,17.0,29.87,NW,315,7.8,7.8,49,0.00,,OVC,0.00,VWS V14.00,2013-02-20 12:39:00,
2013-02-20 07:44:00,34.5,17.3,29.87,SW,225,1.7,1.7,49,0.00,,OVC,0.00,VWS V14.00,2013-02-20 12:44:00,
2013-02-20 07:49:00,34.7,16.5,29.87,WNW,292,3.3,3.3,47,0.00,,OVC,0.00,VWS V14.00,2013-02-20 12:49:00,
2013-02-20 07:54:00,34.8,17.1,29.88,WSW,248,4.0,4.0,48,0.00,,OVC,0.00,VWS V14.00,2013-02-20 12:54:00,
2013-02-20 07:59:00,35.4,17.7,29.88,WNW,292,2.9,2.9,48,0.00,,OVC,0.00,VWS V14.00,2013-02-20 12:59:00,
2013-02-20 08:04:00,35.7,18.0,29.88,WNW,292,3.5,3.5,48,0.00,,OVC,0.00,VWS V14.00,2013-02-20 13:04:00,
2013-02-20 08:09:00,35.7,18.0,29.88,WSW,248,1.1,1.1,48,0.00,,OVC,0.00,VWS V14.00,2013-02-20 13:09:00,
2013-02-20 08:14:00,36.3,18.5,29.89,West,270,2.2,2.2,48,0.00,,OVC,0.00,VWS V14.00,2013-02-20 13:14:00,
2013-02-20 08:19:00,36.8,18.5,29.88,SW,225,9.8,9.8,47,0.00,,OVC,0.00,VWS V14.00,2013-02-20 13:19:00,
2013-02-20 08:24:00,37.0,17.1,29.89,NW,315,14.5,14.5,44,0.00,,OVC,0.00,VWS V14.00,2013-02-20 13:24:00,
2013-02-20 08:29:00,36.6,16.8,29.89,WNW,292,1.5,1.5,44,0.00,,OVC,0.00,VWS V14.00,2013-02-20 13:29:00,
2013-02-20 08:34:00,36.3,16.5,29.89,West,270,0.0,0.0,44,0.00,,OVC,0.00,VWS V14.00,2013-02-20 13:34:00,
2013-02-20 08:39:00,36.3,17.0,29.90,NW,315,10.9,10.9,45,0.00,,OVC,0.00,VWS V14.00,2013-02-20 13:39:00,
2013-02-20 08:44:00,36.3,16.5,29.90,WNW,292,6.9,6.9,44,0.00,,OVC,0.00,VWS V14.00,2013-02-20 13:44:00,
2013-02-20 08:49:00,36.3,16.0,29.90,NW,315,6.0,6.0,43,0.00,,OVC,0.00,VWS V14.00,2013-02-20 13:49:00,
2013-02-20 08:54:00,36.5,17.2,29.90,WNW,292,10.2,10.2,45,0.00,,OVC,0.00,VWS V14.00,2013-02-20 13:54:00,
2013-02-20 08:59:00,36.6,16.2,29.89,West,270,4.6,4.6,43,0.00,,OVC,0.00,VWS V14.00,2013-02-20 13:59:00,
2013-02-20 09:04:00,36.5,16.1,29.89,NNW,338,2.4,2.4,43,0.00,,OVC,0.00,VWS V14.00,2013-02-20 14:04:00,
2013-02-20 09:09:00,37.0,16.6,29.89,WNW,292,1.3,1.3,43,0.00,,OVC,0.00,VWS V14.00,2013-02-20 14:09:00,
2013-02-20 09:14:00,37.7,17.2,29.89,West,270,2.4,2.4,43,0.00,,OVC,0.00,VWS V14.00,2013-02-20 14:14:00,
2013-02-20 09:19:00,37.7,16.7,29.89,WNW,292,2.6,2.6,42,0.00,,OVC,0.00,VWS V14.00,2013-02-20 14:19:00,
2013-02-20 09:24:00,37.7,17.8,29.88,NW,315,0.0,0.0,44,0.00,,OVC,0.00,VWS V14.00,2013-02-20 14:24:00,
2013-02-20 09:29:00,38.1,18.1,29.88,WSW,248,3.8,3.8,44,0.00,,OVC,0.00,VWS V14.00,2013-02-20 14:29:00,
2013-02-20 09:34:00,38.8,18.8,29.88,NNW,338,8.5,8.5,44,0.00,,OVC,0.00,VWS V14.00,2013-02-20 14:34:00,
2013-02-20 09:39:00,39.0,18.4,29.88,West,270,1.5,1.5,43,0.00,,OVC,0.00,VWS V14.00,2013-02-20 14:39:00,
2013-02-20 09:44:00,39.3,18.7,29.88,WNW,292,4.4,4.4,43,0.00,,OVC,0.00,VWS V14.00,2013-02-20 14:44:00,
2013-02-20 09:49:00,39.0,18.4,29.88,SW,225,12.5,12.5,43,0.00,,OVC,0.00,VWS V14.00,2013-02-20 14:49:00,
2013-02-20 09:54:00,37.7,17.8,29.88,West,270,4.9,4.9,44,0.00,,OVC,0.00,VWS V14.00,2013-02-20 14:54:00,
2013-02-20 09:59:00,36.8,18.0,29.89,SW,225,3.8,3.8,46,0.00,,OVC,0.00,VWS V14.00,2013-02-20 14:59:00,
2013-02-20 10:04:00,36.3,18.0,29.89,NE,45,0.0,0.0,47,0.00,,OVC,0.00,VWS V14.00,2013-02-20 15:04:00,
2013-02-20 10:09:00,35.9,17.6,29.89,WNW,292,3.3,3.3,47,0.00,,OVC,0.00,VWS V14.00,2013-02-20 15:09:00,
2013-02-20 10:14:00,35.7,18.0,29.89,SW,225,10.5,10.5,48,0.00,,OVC,0.00,VWS V14.00,2013-02-20 15:14:00,
2013-02-20 10:19:00,35.7,18.0,29.89,WNW,292,6.4,6.4,48,0.00,,OVC,0.00,VWS V14.00,2013-02-20 15:19:00,
2013-02-20 10:24:00,36.1,18.3,29.89,NNW,338,3.8,3.8,48,0.00,,OVC,0.00,VWS V14.00,2013-02-20 15:24:00,
2013-02-20 10:29:00,37.0,17.6,29.89,West,270,4.4,4.4,45,0.00,,OVC,0.00,VWS V14.00,2013-02-20 15:29:00,
2013-02-20 10:34:00,36.8,18.0,29.89,West,270,2.9,2.9,46,0.00,,OVC,0.00,VWS V14.00,2013-02-20 15:34:00,
2013-02-20 10:39:00,37.0,18.2,29.89,SW,225,0.0,0.0,46,0.00,,OVC,0.00,VWS V14.00,2013-02-20 15:39:00,
2013-02-20 10:44:00,37.2,18.8,29.89,WNW,292,0.6,0.6,47,0.00,,OVC,0.00,VWS V14.00,2013-02-20 15:44:00,
2013-02-20 10:49:00,37.7,18.8,29.88,NW,315,4.6,4.6,46,0.00,,OVC,0.00,VWS V14.00,2013-02-20 15:49:00,
2013-02-20 10:54:00,37.5,17.6,29.88,NW,315,0.0,0.0,44,0.00,,OVC,0.00,VWS V14.00,2013-02-20 15:54:00,
2013-02-20 10:59:00,37.0,17.1,29.89,WNW,292,2.4,2.4,44,0.00,,OVC,0.00,VWS V14.00,2013-02-20 15:59:00,
2013-02-20 11:04:00,36.3,17.0,29.89,WNW,292,4.6,4.6,45,0.00,,OVC,0.00,VWS V14.00,2013-02-20 16:04:00,
2013-02-20 11:09:00,37.5,17.0,29.88,West,270,0.0,0.0,43,0.00,,OVC,0.00,VWS V14.00,2013-02-20 16:09:00,
2013-02-20 11:14:00,37.9,18.0,29.88,NNW,338,3.1,3.1,44,0.00,,OVC,0.00,VWS V14.00,2013-02-20 16:14:00,
2013-02-20 11:19:00,37.5,16.5,29.88,WNW,292,2.0,2.0,42,0.00,,OVC,0.00,VWS V14.00,2013-02-20 16:19:00,
2013-02-20 11:24:00,37.7,16.7,29.88,NW,315,10.5,10.5,42,0.00,,OVC,0.00,VWS V14.00,2013-02-20 16:24:00,
2013-02-20 11:29:00,38.1,16.5,29.88,East,90,4.2,4.2,41,0.00,,OVC,0.00,VWS V14.00,2013-02-20 16:29:00,
2013-02-20 11:34:00,38.4,17.3,29.87,WSW,248,3.5,3.5,42,0.00,,OVC,0.00,VWS V14.00,2013-02-20 16:34:00,
2013-02-20 11:39:00,39.0,17.9,29.87,SW,225,2.0,2.0,42,0.00,,OVC,0.00,VWS V14.00,2013-02-20 16:39:00,
2013-02-20 11:44:00,39.7,18.5,29.87,WNW,292,1.1,1.1,42,0.00,,OVC,0.00,VWS V14.00,2013-02-20 16:44:00,
2013-02-20 11:49:00,39.9,17.5,29.87,West,270,0.0,0.0,40,0.00,,OVC,0.00,VWS V14.00,2013-02-20 16:49:00,
2013-02-20 11:54:00,39.3,17.0,29.87,West,270,8.5,8.5,40,0.00,,OVC,0.00,VWS V14.00,2013-02-20 16:54:00,
2013-02-20 11:59:00,39.5,17.8,29.87,West,270,0.0,3.1,41,0.00,,OVC,0.00,VWS V14.00,2013-02-20 16:59:00,
2013-02-20 12:04:00,39.9,18.1,29.88,WNW,292,5.8,5.8,41,0.00,,OVC,0.00,VWS V14.00,2013-02-20 17:04:00,
2013-02-20 12:09:00,39.7,17.4,29.87,NW,315,1.5,1.5,40,0.00,,OVC,0.00,VWS V14.00,2013-02-20 17:09:00,
2013-02-20 12:14:00,39.7,16.8,29.87,NNW,338,11.6,11.6,39,0.00,,OVC,0.00,VWS V14.00,2013-02-20 17:14:00,
2013-02-20 12:19:00,40.1,17.7,29.87,West,270,6.2,6.2,40,0.00,,OVC,0.00,VWS V14.00,2013-02-20 17:19:00,
2013-02-20 12:24:00,40.1,16.5,29.87,WNW,292,6.9,6.9,38,0.00,,OVC,0.00,VWS V14.00,2013-02-20 17:24:00,
2013-02-20 12:29:00,39.3,15.8,29.87,NW,315,13.8,13.8,38,0.00,,OVC,0.00,VWS V14.00,2013-02-20 17:29:00,
2013-02-20 12:34:00,39.3,16.4,29.87,NNW,338,0.0,0.0,39,0.00,,OVC,0.00,VWS V14.00,2013-02-20 17:34:00,
2013-02-20 12:39:00,39.9,17.0,29.87,NW,315,1.7,1.7,39,0.00,,OVC,0.00,VWS V14.00,2013-02-20 17:39:00,
2013-02-20 12:44:00,40.2,17.8,29.87,SW,225,3.3,3.5,40,0.00,,OVC,0.00,VWS V14.00,2013-02-20 17:44:00,
2013-02-20 12:49:00,41.1,18.0,29.87,South,180,2.9,7.6,39,0.00,,OVC,0.00,VWS V14.00,2013-02-20 17:49:00,
2013-02-20 12:54:00,41.0,18.0,29.86,West,270,4.6,4.6,39,0.00,,OVC,0.00,VWS V14.00,2013-02-20 17:54:00,
2013-02-20 12:59:00,40.6,17.6,29.86,WSW,248,13.1,13.1,39,0.00,,OVC,0.00,VWS V14.00,2013-02-20 17:59:00,
2013-02-20 13:04:00,39.9,17.0,29.86,West,270,4.9,4.9,39,0.00,,OVC,0.00,VWS V14.00,2013-02-20 18:04:00,
2013-02-20 13:09:00,39.9,17.0,29.86,NW,315,3.3,3.3,39,0.00,,OVC,0.00,VWS V14.00,2013-02-20 18:09:00,
2013-02-20 13:14:00,38.8,16.6,29.87,West,270,2.0,2.0,40,0.00,,OVC,0.00,VWS V14.00,2013-02-20 18:14:00,
2013-02-20 13:19:00,38.8,17.1,29.87,WNW,292,7.6,7.6,41,0.00,,OVC,0.00,VWS V14.00,2013-02-20 18:19:00,
2013-02-20 13:24:00,38.8,16.6,29.87,SW,225,11.1,11.1,40,0.00,,OVC,0.00,VWS V14.00,2013-02-20 18:24:00,
2013-02-20 13:29:00,38.1,15.9,29.87,WNW,292,5.8,5.8,40,0.00,,OVC,0.00,VWS V14.00,2013-02-20 18:29:00,
2013-02-20 13:34:00,38.8,16.6,29.87,WNW,292,10.9,10.9,40,0.00,,OVC,0.00,VWS V14.00,2013-02-20 18:34:00,
2013-02-20 13:39:00,38.4,16.2,29.87,West,270,2.0,2.0,40,0.00,,OVC,0.00,VWS V14.00,2013-02-20 18:39:00,
2013-02-20 13:44:00,38.4,16.8,29.86,WSW,248,2.4,2.4,41,0.00,,OVC,0.00,VWS V14.00,2013-02-20 18:44:00,
2013-02-20 13:49:00,38.3,16.7,29.86,West,270,3.8,3.8,41,0.00,,OVC,0.00,VWS V14.00,2013-02-20 18:49:00,
2013-02-20 13:54:00,38.3,16.7,29.86,WNW,292,4.9,4.9,41,0.00,,OVC,0.00,VWS V14.00,2013-02-20 18:54:00,
2013-02-20 13:59:00,38.4,16.2,29.86,North,0,0.8,0.8,40,0.00,,OVC,0.00,VWS V14.00,2013-02-20 18:59:00,
2013-02-20 14:04:00,38.3,16.1,29.86,WSW,248,1.3,1.3,40,0.00,,OVC,0.00,VWS V14.00,2013-02-20 19:04:00,
2013-02-20 14:09:00,38.8,16.6,29.87,NNW,338,6.0,6.0,40,0.00,,OVC,0.00,VWS V14.00,2013-02-20 19:09:00,
2013-02-20 14:14:00,38.6,16.4,29.86,WNW,292,12.5,12.5,40,0.00,,OVC,0.00,VWS V14.00,2013-02-20 19:14:00,
2013-02-20 14:19:00,39.0,16.7,29.86,SSE,158,7.3,7.3,40,0.00,,OVC,0.00,VWS V14.00,2013-02-20 19:19:00,
2013-02-20 14:24:00,38.8,16.0,29.87,SSW,202,7.6,7.6,39,0.00,,OVC,0.00,VWS V14.00,2013-02-20 19:24:00,
2013-02-20 14:29:00,37.9,15.8,29.87,WSW,248,1.1,1.1,40,0.00,,OVC,0.00,VWS V14.00,2013-02-20 19:29:00,
2013-02-20 14:34:00,37.0,14.9,29.87,South,180,7.3,7.3,40,0.00,,OVC,0.00,VWS V14.00,2013-02-20 19:34:00,
2013-02-20 14:39:00,36.5,15.1,29.88,WSW,248,4.0,4.0,41,0.00,,OVC,0.00,VWS V14.00,2013-02-20 19:39:00,
2013-02-20 14:44:00,36.6,14.6,29.88,NW,315,10.7,10.7,40,0.00,,OVC,0.00,VWS V14.00,2013-02-20 19:44:00,
2013-02-20 14:49:00,36.5,14.5,29.88,West,270,2.9,2.9,40,0.00,,OVC,0.00,VWS V14.00,2013-02-20 19:49:00,
2013-02-20 14:54:00,35.9,13.9,29.89,WNW,292,8.5,8.5,40,0.00,,OVC,0.00,VWS V14.00,2013-02-20 19:54:00,
2013-02-20 14:59:00,35.7,14.3,29.89,NW,315,0.2,0.2,41,0.00,,OVC,0.00,VWS V14.00,2013-02-20 19:59:00,
2013-02-20 15:04:00,35.2,13.9,29.89,West,270,9.1,9.1,41,0.00,,OVC,0.00,VWS V14.00,2013-02-20 20:04:00,
2013-02-20 15:09:00,34.7,14.0,29.89,NW,315,4.2,4.2,42,0.00,,OVC,0.00,VWS V14.00,2013-02-20 20:09:00,
2013-02-20 15:14:00,34.5,13.8,29.89,West,270,0.0,0.0,42,0.00,,OVC,0.00,VWS V14.00,2013-02-20 20:14:00,
2013-02-20 15:19:00,34.8,14.1,29.89,West,270,2.4,2.4,42,0.00,,OVC,0.00,VWS V14.00,2013-02-20 20:19:00,
2013-02-20 15:24:00,34.5,13.2,29.89,West,270,5.8,5.8,41,0.00,,OVC,0.00,VWS V14.00,2013-02-20 20:24:00,
2013-02-20 15:29:00,34.3,13.1,29.89,WNW,292,3.8,3.8,41,0.00,,OVC,0.00,VWS V14.00,2013-02-20 20:29:00,
2013-02-20 15:34:00,34.3,13.1,29.89,WSW,248,2.4,2.4,41,0.00,,OVC,0.00,VWS V14.00,2013-02-20 20:34:00,
2013-02-20 15:39:00,34.3,13.1,29.90,West,270,1.1,1.1,41,0.00,,OVC,0.00,VWS V14.00,2013-02-20 20:39:00,
2013-02-20 15:44:00,34.7,13.4,29.90,West,270,3.5,3.5,41,0.00,,OVC,0.00,VWS V14.00,2013-02-20 20:44:00,
2013-02-20 15:49:00,34.7,14.0,29.90,WSW,248,0.0,0.0,42,0.00,,OVC,0.00,VWS V14.00,2013-02-20 20:49:00,
2013-02-20 15:54:00,34.7,13.4,29.90,South,180,2.4,2.4,41,0.00,,OVC,0.00,VWS V14.00,2013-02-20 20:54:00,
2013-02-20 15:59:00,34.5,13.2,29.90,NW,315,0.0,0.0,41,0.00,,OVC,0.00,VWS V14.00,2013-02-20 20:59:00,
2013-02-20 16:04:00,34.3,13.1,29.90,West,270,9.6,9.6,41,0.00,,OVC,0.00,VWS V14.00,2013-02-20 21:04:00,
2013-02-20 16:09:00,33.6,13.0,29.90,SW,225,2.0,2.0,42,0.00,,OVC,0.00,VWS V14.00,2013-02-20 21:09:00,
2013-02-20 16:14:00,33.6,13.0,29.90,NW,315,9.1,9.1,42,0.00,,OVC,0.00,VWS V14.00,2013-02-20 21:14:00,
2013-02-20 16:19:00,32.9,12.3,29.90,NW,315,0.0,0.0,42,0.00,,OVC,0.00,VWS V14.00,2013-02-20 21:19:00,
2013-02-20 16:24:00,32.7,12.2,29.90,NW,315,0.0,0.0,42,0.00,,OVC,0.00,VWS V14.00,2013-02-20 21:24:00,
2013-02-20 16:29:00,32.7,12.7,29.90,WNW,292,4.9,4.9,43,0.00,,OVC,0.00,VWS V14.00,2013-02-20 21:29:00,
2013-02-20 16:34:00,32.7,12.7,29.90,North,0,2.2,2.2,43,0.00,,OVC,0.00,VWS V14.00,2013-02-20 21:34:00,
2013-02-20 16:39:00,32.7,12.2,29.91,NW,315,1.7,1.7,42,0.00,,OVC,0.00,VWS V14.00,2013-02-20 21:39:00,
2013-02-20 16:44:00,32.5,12.5,29.91,West,270,2.0,2.0,43,0.00,,OVC,0.00,VWS V14.00,2013-02-20 21:44:00,
2013-02-20 16:49:00,32.1,12.1,29.92,WNW,292,0.0,0.0,43,0.00,,OVC,0.00,VWS V14.00,2013-02-20 21:49:00,
2013-02-20 16:54:00,31.8,11.3,29.92,NW,315,0.0,0.0,42,0.00,,OVC,0.00,VWS V14.00,2013-02-20 21:54:00,
2013-02-20 16:59:00,31.6,11.7,29.92,West,270,1.5,1.5,43,0.00,,OVC,0.00,VWS V14.00,2013-02-20 21:59:00,
2013-02-20 17:04:00,31.6,12.2,29.92,WSW,248,2.0,2.0,44,0.00,,OVC,0.00,VWS V14.00,2013-02-20 22:04:00,
2013-02-20 17:09:00,31.2,11.8,29.93,WSW,248,13.8,13.8,44,0.00,,OVC,0.00,VWS V14.00,2013-02-20 22:09:00,
2013-02-20 17:14:00,31.1,11.8,29.93,West,270,0.0,0.0,44,0.00,,OVC,0.00,VWS V14.00,2013-02-20 22:14:00,
2013-02-20 17:19:00,30.9,11.6,29.92,West,270,0.0,0.0,44,0.00,,OVC,0.00,VWS V14.00,2013-02-20 22:19:00,
2013-02-20 17:24:00,30.7,11.9,29.92,West,270,2.9,2.9,45,0.00,,OVC,0.00,VWS V14.00,2013-02-20 22:24:00,
2013-02-20 17:29:00,30.3,12.0,29.93,West,270,7.1,7.1,46,0.00,,OVC,0.00,VWS V14.00,2013-02-20 22:29:00,
2013-02-20 17:34:00,30.2,11.9,29.93,NW,315,3.1,3.1,46,0.00,,OVC,0.00,VWS V14.00,2013-02-20 22:34:00,
2013-02-20 17:39:00,30.0,11.7,29.93,West,270,0.0,0.0,46,0.00,,OVC,0.00,VWS V14.00,2013-02-20 22:39:00,
2013-02-20 17:44:00,29.8,11.6,29.94,WNW,292,0.2,0.2,46,0.00,,OVC,0.00,VWS V14.00,2013-02-20 22:44:00,
2013-02-20 17:49:00,29.8,12.0,29.94,West,270,0.0,0.0,47,0.00,,OVC,0.00,VWS V14.00,2013-02-20 22:49:00,
2013-02-20 17:56:00,30.4,12.1,54.54,North,0,0.0,0.0,46,0.00,,OVC,0.00,VWS V14.00,2013-02-20 22:56:00,
2013-02-20 18:01:00,29.4,11.7,29.95,West,270,0.0,0.0,47,0.00,,OVC,4.40,VWS V14.00,2013-02-20 23:01:00,
2013-02-20 18:06:00,29.3,12.1,29.95,West,270,0.0,1.1,48,0.00,,OVC,4.40,VWS V14.00,2013-02-20 23:06:00,
2013-02-20 18:11:00,29.3,12.1,29.95,WNW,292,0.0,0.0,48,0.00,,OVC,4.40,VWS V14.00,2013-02-20 23:11:00,
2013-02-20 18:16:00,29.1,11.9,29.95,West,270,1.7,1.7,48,0.00,,OVC,4.40,VWS V14.00,2013-02-20 23:16:00,
2013-02-20 18:21:00,28.9,11.7,29.96,West,270,1.7,1.7,48,0.00,,OVC,4.40,VWS V14.00,2013-02-20 23:21:00,
2013-02-20 18:26:00,28.9,12.1,29.96,NNW,338,0.0,0.0,49,0.00,,OVC,4.40,VWS V14.00,2013-02-20 23:26:00,
2013-02-20 18:31:00,28.9,12.1,29.96,West,270,0.0,0.0,49,0.00,,OVC,4.40,VWS V14.00,2013-02-20 23:31:00,
2013-02-20 18:36:00,28.9,12.1,29.96,West,270,3.5,3.5,49,0.00,,OVC,4.40,VWS V14.00,2013-02-20 23:36:00,
2013-02-20 18:41:00,28.9,12.1,29.96,West,270,1.5,1.5,49,0.00,,OVC,4.40,VWS V14.00,2013-02-20 23:41:00,
2013-02-20 18:46:00,28.9,12.1,29.96,WNW,292,0.0,0.0,49,0.00,,OVC,4.40,VWS V14.00,2013-02-20 23:46:00,
2013-02-20 18:51:00,28.7,12.0,29.96,NW,315,1.3,1.3,49,0.00,,OVC,4.40,VWS V14.00,2013-02-20 23:51:00,
2013-02-20 18:56:00,28.5,11.8,29.96,West,270,0.0,0.0,49,0.00,,OVC,4.40,VWS V14.00,2013-02-20 23:56:00,
2013-02-20 19:01:00,28.5,11.8,29.97,SSW,202,0.0,0.0,49,0.00,,OVC,4.40,VWS V14.00,2013-02-21 00:01:00,
2013-02-20 19:06:00,28.5,11.8,29.97,NW,315,3.3,3.3,49,0.00,,OVC,4.40,VWS V14.00,2013-02-21 00:06:00,
2013-02-20 19:11:00,28.5,11.8,29.97,WSW,248,0.0,0.0,49,0.00,,OVC,4.40,VWS V14.00,2013-02-21 00:11:00,
2013-02-20 19:16:00,28.5,12.2,29.97,NNE,22,0.0,0.0,50,0.00,,OVC,4.40,VWS V14.00,2013-02-21 00:16:00,
2013-02-20 19:21:00,28.2,12.0,29.97,West,270,3.8,3.8,50,0.00,,OVC,4.40,VWS V14.00,2013-02-21 00:21:00,
2013-02-20 19:26:00,28.2,12.0,29.96,NW,315,0.0,0.0,50,0.00,,OVC,4.40,VWS V14.00,2013-02-21 00:26:00,
2013-02-20 19:31:00,28.2,12.0,29.96,West,270,0.0,0.0,50,0.00,,OVC,4.40,VWS V14.00,2013-02-21 00:31:00,
2013-02-20 19:36:00,28.0,12.2,29.96,WNW,292,0.0,0.0,51,0.00,,OVC,4.40,VWS V14.00,2013-02-21 00:36:00,
2013-02-20 19:41:00,28.0,12.2,29.96,WSW,248,0.6,0.6,51,0.00,,OVC,4.40,VWS V14.00,2013-02-21 00:41:00,
2013-02-20 19:46:00,28.0,12.2,29.97,NW,315,5.3,5.3,51,0.00,,OVC,4.40,VWS V14.00,2013-02-21 00:46:00,
2013-02-20 19:51:00,28.0,12.2,29.96,WNW,292,4.0,4.0,51,0.00,,OVC,4.40,VWS V14.00,2013-02-21 00:51:00,
2013-02-20 19:56:00,28.0,12.2,29.96,NE,45,0.0,0.0,51,0.00,,OVC,4.40,VWS V14.00,2013-02-21 00:56:00,
2013-02-20 20:01:00,28.0,12.2,29.97,NW,315,6.0,6.0,51,0.00,,OVC,4.40,VWS V14.00,2013-02-21 01:01:00,
2013-02-20 20:06:00,28.0,12.2,29.97,WNW,292,0.0,0.0,51,0.00,,OVC,4.40,VWS V14.00,2013-02-21 01:06:00,
2013-02-20 20:11:00,28.0,12.2,29.96,NW,315,5.1,5.1,51,0.00,,OVC,4.40,VWS V14.00,2013-02-21 01:11:00,
2013-02-20 20:16:00,28.0,12.2,29.96,NNW,338,0.0,0.0,51,0.00,,OVC,4.40,VWS V14.00,2013-02-21 01:16:00,
2013-02-20 20:21:00,27.8,12.5,29.97,West,270,0.0,0.0,52,0.00,,OVC,4.40,VWS V14.00,2013-02-21 01:21:00,
2013-02-20 20:26:00,27.6,11.9,29.97,SW,225,0.0,0.0,51,0.00,,OVC,4.40,VWS V14.00,2013-02-21 01:26:00,
2013-02-20 20:31:00,27.6,11.9,29.97,WNW,292,0.0,0.0,51,0.00,,OVC,4.40,VWS V14.00,2013-02-21 01:31:00,
2013-02-20 20:36:00,27.6,12.3,29.98,SSW,202,0.0,0.0,52,0.00,,OVC,4.40,VWS V14.00,2013-02-21 01:36:00,
2013-02-20 20:41:00,27.6,12.3,29.98,WSW,248,0.0,0.0,52,0.00,,OVC,4.40,VWS V14.00,2013-02-21 01:41:00,
2013-02-20 20:46:00,27.5,12.2,29.98,SW,225,1.5,1.5,52,0.00,,OVC,4.40,VWS V14.00,2013-02-21 01:46:00,
2013-02-20 20:51:00,27.5,12.2,29.98,NW,315,11.4,11.4,52,0.00,,OVC,4.40,VWS V14.00,2013-02-21 01:51:00,
2013-02-20 20:56:00,27.5,12.2,29.98,North,0,0.0,0.0,52,0.00,,OVC,4.40,VWS V14.00,2013-02-21 01:56:00,
2013-02-20 21:01:00,27.3,12.0,29.98,SW,225,0.0,0.0,52,0.00,,OVC,4.40,VWS V14.00,2013-02-21 02:01:00,
2013-02-20 21:06:00,27.3,12.0,29.98,WNW,292,0.0,0.0,52,0.00,,OVC,4.40,VWS V14.00,2013-02-21 02:06:00,
2013-02-20 21:11:00,27.3,11.6,29.99,WSW,248,2.6,2.6,51,0.00,,OVC,4.40,VWS V14.00,2013-02-21 02:11:00,
2013-02-20 21:16:00,27.3,11.6,29.99,WNW,292,0.0,0.0,51,0.00,,OVC,4.40,VWS V14.00,2013-02-21 02:16:00,
2013-02-20 21:21:00,27.3,11.6,29.99,NW,315,6.0,6.0,51,0.00,,OVC,4.40,VWS V14.00,2013-02-21 02:21:00,
2013-02-20 21:26:00,27.3,11.1,29.98,WNW,292,2.0,2.0,50,0.00,,OVC,4.40,VWS V14.00,2013-02-21 02:26:00,
2013-02-20 21:31:00,27.3,11.1,29.99,SW,225,4.2,4.2,50,0.00,,OVC,4.40,VWS V14.00,2013-02-21 02:31:00,
2013-02-20 21:36:00,27.1,11.4,29.99,NNE,22,0.0,0.0,51,0.00,,OVC,4.40,VWS V14.00,2013-02-21 02:36:00,
2013-02-20 21:41:00,27.1,11.4,29.99,West,270,0.0,0.0,51,0.00,,OVC,4.40,VWS V14.00,2013-02-21 02:41:00,
2013-02-20 21:46:00,27.1,11.4,29.99,North,0,0.0,0.0,51,0.00,,OVC,4.40,VWS V14.00,2013-02-21 02:46:00,
2013-02-20 21:51:00,26.7,11.0,29.99,WNW,292,0.0,0.0,51,0.00,,OVC,4.40,VWS V14.00,2013-02-21 02:51:00,
2013-02-20 21:56:00,26.9,11.2,29.99,West,270,0.0,0.0,51,0.00,,OVC,4.40,VWS V14.00,2013-02-21 02:56:00,
2013-02-20 22:01:00,26.7,11.0,30.00,West,270,0.0,0.0,51,0.00,,OVC,4.40,VWS V14.00,2013-02-21 03:01:00,
2013-02-20 22:06:00,26.7,11.0,30.00,SSW,202,2.4,2.4,51,0.00,,OVC,4.40,VWS V14.00,2013-02-21 03:06:00,
2013-02-20 22:11:00,26.6,10.9,29.99,NNW,338,0.0,0.0,51,0.00,,OVC,4.40,VWS V14.00,2013-02-21 03:11:00,
2013-02-20 22:16:00,26.4,10.7,29.99,NW,315,0.0,0.0,51,0.00,,OVC,4.40,VWS V14.00,2013-02-21 03:16:00,
2013-02-20 22:21:00,26.4,11.2,29.99,WNW,292,0.4,0.4,52,0.00,,OVC,4.40,VWS V14.00,2013-02-21 03:21:00,
2013-02-20 22:26:00,26.4,11.2,29.99,SSW,202,0.0,0.0,52,0.00,,OVC,4.40,VWS V14.00,2013-02-21 03:26:00,
2013-02-20 22:31:00,26.4,11.2,30.00,West,270,0.0,0.0,52,0.00,,OVC,4.40,VWS V14.00,2013-02-21 03:31:00,
2013-02-20 22:36:00,26.4,11.2,30.00,West,270,0.0,0.0,52,0.00,,OVC,4.40,VWS V14.00,2013-02-21 03:36:00,
2013-02-20 22:41:00,26.2,11.0,30.00,WNW,292,0.0,0.0,52,0.00,,OVC,4.40,VWS V14.00,2013-02-21 03:41:00,
2013-02-20 22:46:00,26.2,11.0,30.00,NW,315,5.5,5.5,52,0.00,,OVC,4.40,VWS V14.00,2013-02-21 03:46:00,
2013-02-20 22:51:00,26.2,11.4,30.00,NW,315,0.0,0.0,53,0.00,,OVC,4.40,VWS V14.00,2013-02-21 03:51:00,
2013-02-20 22:56:00,26.0,11.2,30.00,NW,315,5.5,5.5,53,0.00,,OVC,4.40,VWS V14.00,2013-02-21 03:56:00,
2013-02-20 23:01:00,26.0,11.2,30.00,West,270,0.0,0.0,53,0.00,,OVC,4.40,VWS V14.00,2013-02-21 04:01:00,
2013-02-20 23:06:00,26.0,11.2,30.00,WNW,292,0.0,0.0,53,0.00,,OVC,4.40,VWS V14.00,2013-02-21 04:06:00,
2013-02-20 23:11:00,25.8,11.0,30.00,West,270,0.0,0.0,53,0.00,,OVC,4.40,VWS V14.00,2013-02-21 04:11:00,
2013-02-20 23:16:00,25.8,11.0,30.00,West,270,0.0,0.0,53,0.00,,OVC,4.40,VWS V14.00,2013-02-21 04:16:00,
2013-02-20 23:21:00,25.7,10.9,30.01,WNW,292,0.0,0.0,53,0.00,,OVC,4.40,VWS V14.00,2013-02-21 04:21:00,
2013-02-20 23:26:00,25.5,10.8,30.00,West,270,2.9,2.9,53,0.00,,OVC,4.40,VWS V14.00,2013-02-21 04:26:00,
2013-02-20 23:31:00,25.7,10.9,30.00,WNW,292,0.0,0.0,53,0.00,,OVC,4.40,VWS V14.00,2013-02-21 04:31:00,
2013-02-20 23:36:00,25.7,10.9,30.00,West,270,0.0,0.0,53,0.00,,OVC,4.40,VWS V14.00,2013-02-21 04:36:00,
2013-02-20 23:41:00,25.7,10.9,30.00,SE,135,0.0,0.0,53,0.00,,OVC,4.40,VWS V14.00,2013-02-21 04:41:00,
2013-02-20 23:46:00,25.7,10.9,30.00,NW,315,1.1,1.1,53,0.00,,OVC,4.40,VWS V14.00,2013-02-21 04:46:00,
2013-02-20 23:51:00,25.7,10.9,30.00,West,270,0.0,0.0,53,0.00,,OVC,4.40,VWS V14.00,2013-02-21 04:51:00,
2013-02-20 23:56:00,25.5,10.8,30.01,NNE,22,0.0,0.0,53,0.00,,OVC,4.40,VWS V14.00,2013-02-21 04:56:00,